Location: *
(12.5665°N, 8.3471°E)
Time: 10:45:56
(UTC+00:00)

PSLV R/B - Pass Details

Date: 23 September 2019
Orbit: 568 x 599 km, 98.1° (Epoch: 21 October)

Event Time Altitude Azimuth Distance (km) Brightness Sun altitude
Rises 04:01:07 0° 181° (S) 2,824 7.4 -19.0°
Reaches altitude 10° 04:03:22 10° 187° (S) 1,919 6.5 -18.5°
Maximum altitude 04:07:19 42° 259° (W) 838 4.2 -17.5°
Drops below altitude 10° 04:11:14 10° 331° (NNW) 1,902 6.3 -16.6°
Sets 04:13:28 0° 338° (NNW) 2,797 7.2 -16.0°
